• In Hungary
  • List of Countries
  • For 7 days
  • Water Temperature
  • Satellite Maps
  • Weather Map
  • News
  • Weather Widgets
  • user-avatar
    Login

    Hourly Weather Gold Coast

    Today, 19 August, Saturday

    Time Temperature Precipitation Wind Pressure Humidity
    00:00 +12°C° 0 mm 7 mps 758 mmHg 41%
    01:00 +11°C° 0 mm 8 mps 758 mmHg 42%
    02:00 +11°C° 0 mm 8 mps 758 mmHg 42%
    03:00 +10°C° 0 mm 8 mps 758 mmHg 43%
    04:00 +10°C° 0 mm 7 mps 758 mmHg 43%
    05:00 +10°C° 0 mm 8 mps 758 mmHg 43%
    06:00 +10°C° 0 mm 8 mps 758 mmHg 42%
    07:00 +10°C° 0 mm 8 mps 758 mmHg 42%
    08:00 +11°C° 0 mm 8 mps 758 mmHg 36%
    09:00 +13°C° 0 mm 8 mps 758 mmHg 31%
    10:00 +16°C° 0 mm 8 mps 758 mmHg 25%
    11:00 +17°C° 0 mm 8 mps 757 mmHg 22%
    12:00 +18°C° 0 mm 8 mps 757 mmHg 19%
    13:00 +20°C° 0 mm 8 mps 756 mmHg 17%
    14:00 +20°C° 0 mm 7 mps 756 mmHg 17%
    15:00 +20°C° 0 mm 7 mps 756 mmHg 17%
    16:00 +20°C° 0 mm 7 mps 756 mmHg 17%
    17:00 +17°C° 0 mm 7 mps 757 mmHg 20%
    18:00 +15°C° 0 mm 7 mps 758 mmHg 23%
    19:00 +13°C° 0 mm 6 mps 758 mmHg 26%
    20:00 +11°C° 0 mm 7 mps 759 mmHg 27%
    21:00 +11°C° 0 mm 7 mps 759 mmHg 29%
    22:00 +10°C° 0 mm 7 mps 760 mmHg 31%
    23:00 +10°C° 0 mm 7 mps 760 mmHg 33%

    Tomorrow, 20 August, Sunday

    Time Temperature Precipitation Wind Pressure Humidity
    00:00 +9°C° 0 mm 7 mps 760 mmHg 36%
    01:00 +8°C° 0 mm 7 mps 760 mmHg 38%
    02:00 +8°C° 0 mm 7 mps 760 mmHg 40%
    03:00 +8°C° 0 mm 7 mps 759 mmHg 43%
    04:00 +8°C° 0 mm 7 mps 759 mmHg 45%
    05:00 +8°C° 0 mm 7 mps 760 mmHg 48%
    06:00 +8°C° 0 mm 7 mps 760 mmHg 50%
    07:00 +8°C° 0 mm 7 mps 761 mmHg 52%
    08:00 +10°C° 0 mm 7 mps 761 mmHg 47%
    09:00 +14°C° 0 mm 7 mps 761 mmHg 43%
    10:00 +16°C° 0 mm 7 mps 761 mmHg 38%
    11:00 +17°C° 0 mm 7 mps 760 mmHg 36%
    12:00 +18°C° 0 mm 7 mps 760 mmHg 35%
    13:00 +20°C° 0 mm 7 mps 759 mmHg 33%
    14:00 +20°C° 0 mm 7 mps 759 mmHg 35%
    15:00 +20°C° 0 mm 6 mps 759 mmHg 37%
    16:00 +20°C° 0 mm 6 mps 759 mmHg 38%
    17:00 +17°C° 0.1 mm 6 mps 760 mmHg 45%
    18:00 +15°C° 0.1 mm 6 mps 760 mmHg 52%
    19:00 +13°C° 0.1 mm 5 mps 761 mmHg 59%
    20:00 +12°C° 0.1 mm 5 mps 761 mmHg 63%
    21:00 +12°C° 0.1 mm 5 mps 761 mmHg 67%
    22:00 +10°C° 0.1 mm 5 mps 762 mmHg 70%
    23:00 +10°C° 0.1 mm 5 mps 761 mmHg 73%

    Day after tomorrow, 21 August, Monday

    Time Temperature Precipitation Wind Pressure Humidity
    00:00 +9°C° 0.1 mm 5 mps 761 mmHg 76%
    01:00 +10°C° 0.1 mm 4 mps 761 mmHg 79%
    02:00 +8°C° 0 mm 4 mps 761 mmHg 80%
    03:00 +8°C° 0 mm 4 mps 761 mmHg 80%
    04:00 +7°C° 0 mm 4 mps 760 mmHg 81%
    05:00 +8°C° 0 mm 4 mps 761 mmHg 79%
    06:00 +9°C° 0 mm 3 mps 761 mmHg 77%
    07:00 +9°C° 0 mm 3 mps 762 mmHg 75%
    08:00 +13°C° 0 mm 3 mps 762 mmHg 66%
    09:00 +18°C° 0 mm 2 mps 762 mmHg 57%
    10:00 +21°C° 0 mm 2 mps 762 mmHg 48%
    11:00 +23°C° 0 mm 2 mps 761 mmHg 45%
    12:00 +23°C° 0 mm 2 mps 760 mmHg 42%
    13:00 +24°C° 0 mm 2 mps 760 mmHg 39%
    14:00 +23°C° 0 mm 2 mps 759 mmHg 44%
    15:00 +21°C° 0 mm 2 mps 759 mmHg 48%
    16:00 +20°C° 0 mm 3 mps 759 mmHg 53%
    17:00 +19°C° 0 mm 3 mps 759 mmHg 63%
    18:00 +17°C° 0 mm 3 mps 760 mmHg 74%
    19:00 +16°C° 0 mm 3 mps 760 mmHg 84%
    20:00 +14°C° 0 mm 4 mps 760 mmHg 86%
    21:00 +14°C° 0 mm 4 mps 760 mmHg 87%
    22:00 +14°C° 0 mm 4 mps 760 mmHg 88%
    23:00 +14°C° 0.1 mm 4 mps 760 mmHg 89%

    22 August, Tuesday

    Time Temperature Precipitation Wind Pressure Humidity
    00:00 +14°C° 0.1 mm 4 mps 760 mmHg 90%
    01:00 +13°C° 0.1 mm 4 mps 759 mmHg 91%
    02:00 +13°C° 0.1 mm 5 mps 759 mmHg 91%
    03:00 +13°C° 0.1 mm 5 mps 759 mmHg 91%
    04:00 +13°C° 0.1 mm 5 mps 759 mmHg 91%
    05:00 +13°C° 0 mm 5 mps 759 mmHg 90%
    06:00 +14°C° 0 mm 5 mps 759 mmHg 90%
    07:00 +14°C° 0 mm 6 mps 760 mmHg 89%
    08:00 +16°C° 0 mm 6 mps 760 mmHg 79%
    09:00 +19°C° 0 mm 6 mps 760 mmHg 68%
    10:00 +22°C° 0 mm 6 mps 759 mmHg 58%
    11:00 +23°C° 0 mm 6 mps 759 mmHg 48%
    12:00 +26°C° 0 mm 6 mps 758 mmHg 38%
    13:00 +28°C° 0 mm 5 mps 757 mmHg 28%
    14:00 +28°C° 0 mm 5 mps 757 mmHg 28%
    15:00 +28°C° 0 mm 5 mps 757 mmHg 27%
    16:00 +28°C° 0 mm 5 mps 756 mmHg 27%
    17:00 +25°C° 0 mm 5 mps 757 mmHg 29%
    18:00 +21°C° 0 mm 4 mps 758 mmHg 31%
    19:00 +19°C° 0 mm 4 mps 758 mmHg 33%
    20:00 +18°C° 0 mm 4 mps 759 mmHg 38%
    21:00 +17°C° 0 mm 4 mps 759 mmHg 43%
    22:00 +15°C° 0 mm 4 mps 760 mmHg 47%
    23:00 +15°C° 0 mm 4 mps 759 mmHg 51%

    23 August, Wednesday

    Time Temperature Precipitation Wind Pressure Humidity
    00:00 +14°C° 0 mm 4 mps 759 mmHg 56%
    01:00 +13°C° 0 mm 4 mps 759 mmHg 60%
    02:00 +13°C° 0 mm 4 mps 759 mmHg 62%
    03:00 +12°C° 0 mm 4 mps 759 mmHg 64%
    04:00 +12°C° 0 mm 3 mps 759 mmHg 66%
    05:00 +12°C° 0 mm 3 mps 760 mmHg 66%
    06:00 +12°C° 0 mm 3 mps 760 mmHg 65%
    07:00 +12°C° 0 mm 3 mps 761 mmHg 65%
    08:00 +17°C° 0 mm 2 mps 761 mmHg 57%
    09:00 +20°C° 0 mm 2 mps 761 mmHg 50%
    10:00 +25°C° 0 mm 2 mps 761 mmHg 42%
    11:00 +26°C° 0 mm 2 mps 760 mmHg 39%
    12:00 +27°C° 0 mm 2 mps 759 mmHg 35%
    13:00 +29°C° 0 mm 2 mps 759 mmHg 32%
    14:00 +28°C° 0 mm 2 mps 759 mmHg 34%
    15:00 +27°C° 0 mm 3 mps 758 mmHg 36%
    16:00 +26°C° 0 mm 3 mps 758 mmHg 37%
    17:00 +24°C° 0 mm 3 mps 759 mmHg 51%
    18:00 +20°C° 0 mm 2 mps 759 mmHg 65%
    19:00 +18°C° 0 mm 2 mps 760 mmHg 78%
    20:00 +17°C° 0 mm 2 mps 760 mmHg 81%
    21:00 +18°C° 0 mm 1 mps 761 mmHg 84%
    22:00 +16°C° 0 mm 1 mps 761 mmHg 88%
    23:00 +16°C° 0 mm 1 mps 761 mmHg 86%

    24 August, Thursday

    Time Temperature Precipitation Wind Pressure Humidity
    00:00 +15°C° 0 mm 2 mps 761 mmHg 85%
    01:00 +14°C° 0 mm 2 mps 760 mmHg 84%
    02:00 +14°C° 0 mm 2 mps 760 mmHg 81%
    03:00 +12°C° 0 mm 3 mps 760 mmHg 78%
    04:00 +11°C° 0 mm 3 mps 760 mmHg 75%
    05:00 +12°C° 0 mm 3 mps 761 mmHg 76%
    06:00 +12°C° 0 mm 3 mps 761 mmHg 77%
    07:00 +12°C° 0 mm 4 mps 762 mmHg 78%
    08:00 +15°C° 0 mm 4 mps 762 mmHg 71%
    09:00 +19°C° 0 mm 4 mps 762 mmHg 65%
    10:00 +22°C° 0 mm 4 mps 762 mmHg 58%
    11:00 +22°C° 0 mm 4 mps 761 mmHg 55%
    12:00 +23°C° 0 mm 4 mps 761 mmHg 52%
    13:00 +25°C° 0 mm 4 mps 760 mmHg 49%
    14:00 +23°C° 0.1 mm 5 mps 760 mmHg 54%
    15:00 +22°C° 0.1 mm 5 mps 760 mmHg 58%
    16:00 +21°C° 0.1 mm 5 mps 760 mmHg 63%
    17:00 +20°C° 0.1 mm 5 mps 761 mmHg 71%
    18:00 +17°C° 0.1 mm 5 mps 761 mmHg 78%
    19:00 +15°C° 0.1 mm 5 mps 762 mmHg 86%
    20:00 +15°C° 0.1 mm 5 mps 762 mmHg 87%
    21:00 +14°C° 0.1 mm 5 mps 762 mmHg 89%
    22:00 +14°C° 0.1 mm 4 mps 762 mmHg 90%
    23:00 +14°C° 0.1 mm 4 mps 762 mmHg 91%
    Show more